Flag for Norway Weather past 2 weeks in Søgne, Norway

Now
41 °F

Quite cool.


Feels Like: 36 °F
Forecast: 35 / 45 °F
Wind: 9 mph from West

Location: Oksoy Fyr

Current Time: Mar 2, 2015 at 2:39:47 PM

Latest Report: Mar 2, 2015 at 2:00 PM


Visibility: N/A

Pressure: 29.18 "Hg

Humidity: 89%

Dew point: 38 °F

Location of SøgneLocation

Historic Weather in Søgne — Graph

°F

Søgne temperature yesterday

Maximum temperature yesterday: 42 °F (at 12:00 PM)
Minimum temperature yesterday: 38 °F (at 6:00 AM)
Average temperature yesterday: 41 °F

Past Weeks' High & Low Weather Summary

 TemperatureHumidityPressure
High43 °F (Feb 19, 12:00 AM)97% (Feb 18, 2:00 PM)30.40 "Hg (Feb 18, 2:00 PM)
Low33 °F (Feb 22, 5:00 AM)62% (Feb 22, 1:00 PM)28.91 "Hg (Feb 23, 8:00 AM)
Average40 °F91%29.65 "Hg
* Reported Feb 15 1:00 PM — Mar 2 1:00 PM, Søgne, Weather by CustomWeather, © 2015

Note: Actual official high and low records may vary slightly from our data, if they occured in-between our weather recording intervals... More about our weather records

Advertising

Søgne weather history for previous 24 hours

 ConditionsComfort  
Time TempWeatherWind HumidityBarometerVisibility
1:00 PM
Mon, Mar 2
41 °FQuite cool.8 mph88%29.18 "HgN/A
12:00 PM41 °FQuite cool.6 mph88%29.18 "HgN/A
11:00 AM40 °FChilly.5 mph90%29.15 "HgN/A
10:00 AM41 °FQuite cool.6 mph90%29.15 "HgN/A
9:00 AM39 °FChilly.7 mph90%29.12 "HgN/A
8:00 AM39 °FChilly.6 mph91%29.12 "HgN/A
7:00 AM39 °FChilly.7 mph91%29.12 "HgN/A
6:00 AM38 °FChilly.6 mph88%29.09 "HgN/A
5:00 AM40 °FChilly.7 mph92%29.09 "HgN/A
4:00 AM40 °FQuite cool.5 mph92%29.09 "HgN/A
3:00 AM40 °FQuite cool.6 mph91%29.09 "HgN/A
2:00 AM41 °FQuite cool.6 mph92%29.09 "HgN/A
1:00 AM40 °FQuite cool.8 mph88%29.09 "HgN/A
12:00 AM41 °FQuite cool.7 mph90%29.09 "HgN/A
11:00 PM
Sun, Mar 1
41 °FQuite cool.12 mph89%29.09 "HgN/A
9:00 PM41 °FQuite cool.14 mph90%29.09 "HgN/A
8:00 PM42 °FQuite cool.13 mph93%29.09 "HgN/A
7:00 PM42 °FQuite cool.13 mph93%29.06 "HgN/A
6:00 PM40 °FQuite cool.8 mph92%29.06 "HgN/A
5:00 PM40 °FQuite cool.14 mph91%29.06 "HgN/A
4:00 PM41 °FQuite cool.14 mph94%29.03 "HgN/A
3:00 PM41 °FQuite cool.9 mph94%29.03 "HgN/A
2:00 PM42 °FQuite cool.14 mph94%29.03 "HgN/A
Weather by CustomWeather, © 2015

See weather overviewHow to use our weather pages